Weather History for Erie, CO

Change the Weather History Date:

Friday, June 14, 2013

  Actual Average (KBJC) Record (KBJC)
Temperature  
Mean Temperature 72 °F -  
Max Temperature 90 °F 76 °F 100 °F (2006)
Min Temperature 55 °F 52 °F 42 °F (2001)
Cooling Degree Days 8    
Growing Degree Days 22 (Base 50)    
Moisture  
Dew Point 43 °F    
Average Humidity 43    
Maximum Humidity 89    
Minimum Humidity 11    
Precipitation  
Precipitation 0.00 in - - ()
Sea Level Pressure  
Sea Level Pressure 29.97 in    
Wind  
Wind Speed 5 mph (ESE)    
Max Wind Speed 28 mph    
Max Gust Speed 37 mph    
Visibility 10 miles    
Events      
Averages and records for this station are not official NWS values.
T = Trace of Precipitation, MM = Missing Value Source: NWS Daily Summary

Daily Weather History Graph

Daily Weather History Graph

Search for Another Location

Airport:

Trip Planner

Search our weather history database for the weather conditions in past years. The results will help you decide how hot, cold, wet, or windy it might be!

Date:

Astronomy

Jun. 14, 2013 Rise Set
Actual Time 5:30 AM MDT 8:30 PM MDT
Civil Twilight 4:57 AM MDT 9:03 PM MDT
Nautical Twilight 4:16 AM MDT 9:45 PM MDT
Astronomical Twilight 3:27 AM MDT 10:33 PM MDT
Moon 11:08 AM MDT (6/14) No Moon Set
Length of Visible Light 16h 05m
Length of Day
14h 59m
Waxing Crescent, 31% of the Moon is Illuminated
Jun 14
Waxing Crescent
Jun 16
First Quarter
Jun 23
Full
Jun 29
Last Quarter
Jul 8
New

Hourly Weather History & Observations

Time (MDT) Temp. Dew Point Humidity Pressure Visibility Wind Dir Wind Speed Gust Speed Precip Events Conditions
12:15 AM 60.6 °F 53.1 °F 76% 29.98 in 10.0 mi SW 3.5 mph - N/A   Clear
12:35 AM 61.5 °F 53.6 °F 75% 29.97 in 10.0 mi Calm Calm - N/A   Clear
12:55 AM 61.9 °F 54.3 °F 76% 29.96 in 10.0 mi Calm Calm - N/A   Clear
1:15 AM 61.9 °F 54.1 °F 76% 29.96 in 10.0 mi Calm Calm - N/A   Clear
1:35 AM 60.4 °F 54.0 °F 79% 29.96 in 10.0 mi Calm Calm - N/A   Clear
1:55 AM 59.9 °F 54.7 °F 83% 29.95 in 10.0 mi Calm Calm - N/A   Clear
2:15 AM 59.9 °F 54.0 °F 81% 29.94 in 10.0 mi Calm Calm - N/A   Clear
2:35 AM 58.3 °F 54.3 °F 87% 29.94 in 10.0 mi Calm Calm - N/A   Clear
2:55 AM 58.1 °F 54.0 °F 86% 29.94 in 10.0 mi Calm Calm - N/A   Clear
3:15 AM 59.0 °F 53.8 °F 83% 29.94 in 10.0 mi Calm Calm - N/A   Clear
3:35 AM 59.0 °F 53.6 °F 82% 29.94 in 10.0 mi Calm Calm - N/A   Clear
3:55 AM 57.9 °F 53.4 °F 85% 29.95 in 10.0 mi Calm Calm - N/A   Clear
4:15 AM 57.2 °F 54.0 °F 89% 29.95 in 10.0 mi Calm Calm - N/A   Clear
4:35 AM 56.7 °F 53.1 °F 88% 29.95 in 10.0 mi SW 3.5 mph - N/A   Clear
4:55 AM 55.9 °F 52.0 °F 87% 29.95 in 10.0 mi SW 3.5 mph - N/A   Clear
5:15 AM 55.6 °F 51.4 °F 86% 29.96 in 10.0 mi Calm Calm - N/A   Clear
5:35 AM 57.0 °F 52.2 °F 84% 29.96 in 10.0 mi WSW 4.6 mph - N/A   Clear
5:55 AM 57.0 °F 51.6 °F 82% 29.96 in 10.0 mi Calm Calm - N/A   Clear
6:15 AM 59.2 °F 49.5 °F 70% 29.97 in 10.0 mi SW 4.6 mph - N/A   Clear
6:35 AM 61.2 °F 46.6 °F 59% 29.97 in 10.0 mi SW 3.5 mph - N/A   Clear
6:55 AM 64.0 °F 43.7 °F 48% 29.97 in 10.0 mi SW 6.9 mph - N/A   Clear
7:15 AM 65.1 °F 44.4 °F 47% 29.98 in 10.0 mi SW 3.5 mph - N/A   Clear
7:35 AM 68.2 °F 48.6 °F 49% 29.99 in 10.0 mi NE 4.6 mph - N/A   Clear
7:55 AM 72.9 °F 43.5 °F 35% 29.99 in 10.0 mi SSW 4.6 mph - N/A   Clear
8:15 AM 74.1 °F 45.9 °F 36% 29.99 in 10.0 mi North 4.6 mph - N/A   Clear
8:35 AM 72.5 °F 48.7 °F 43% 30.00 in 10.0 mi North 4.6 mph - N/A   Clear
8:55 AM 74.3 °F 47.3 °F 38% 30.00 in 10.0 mi North 3.5 mph - N/A   Clear
9:15 AM 74.7 °F 51.3 °F 44% 30.00 in 10.0 mi NE 6.9 mph - N/A   Clear
9:35 AM 76.6 °F 48.9 °F 38% 30.00 in 10.0 mi NNE 6.9 mph - N/A   Clear
9:55 AM 78.6 °F 46.4 °F 32% 29.99 in 10.0 mi NNE 4.6 mph - N/A   Clear
10:15 AM 81.1 °F 44.8 °F 28% 29.99 in 10.0 mi Calm Calm - N/A   Clear
10:35 AM 82.8 °F 42.1 °F 24% 29.99 in 10.0 mi ENE 3.5 mph - N/A   Clear
10:55 AM 82.6 °F 40.3 °F 22% 29.99 in 10.0 mi Calm Calm - N/A   Clear
11:15 AM 83.5 °F 38.7 °F 20% 29.99 in 10.0 mi NE 5.8 mph - N/A   Clear
11:35 AM 85.5 °F 40.3 °F 20% 29.99 in 10.0 mi ESE 12.7 mph 17.3 mph N/A   Clear
11:55 AM 85.1 °F 42.1 °F 22% 29.99 in 10.0 mi East 11.5 mph 19.6 mph N/A   Clear
12:15 PM 85.8 °F 37.6 °F 18% 29.99 in 10.0 mi ESE 13.8 mph - N/A   Clear
12:35 PM 87.4 °F 34.5 °F 15% 29.98 in 10.0 mi East 12.7 mph 16.1 mph N/A   Clear
12:55 PM 88.9 °F 31.3 °F 13% 29.97 in 10.0 mi East 13.8 mph 18.4 mph N/A   Clear
1:15 PM 90.0 °F 28.2 °F 11% 29.97 in 10.0 mi East 9.2 mph 18.4 mph N/A   Clear
1:35 PM 89.6 °F 30.0 °F 12% 29.97 in 10.0 mi East 12.7 mph 19.6 mph N/A   Clear
1:55 PM 89.4 °F 33.6 °F 14% 29.96 in 10.0 mi East 13.8 mph 25.3 mph N/A   Clear
2:15 PM 86.0 °F 33.3 °F 15% 29.96 in 10.0 mi ESE 16.1 mph 20.7 mph N/A   Clear
2:35 PM 87.4 °F 34.2 °F 15% 29.94 in 10.0 mi ESE 13.8 mph 21.9 mph N/A   Clear
2:55 PM 88.2 °F 35.4 °F 15% 29.95 in 10.0 mi SE 16.1 mph 23.0 mph N/A   Clear
3:15 PM 86.2 °F 34.7 °F 16% 29.95 in 10.0 mi East 13.8 mph 19.6 mph N/A   Clear
3:35 PM 85.1 °F 34.2 °F 16% 29.95 in 10.0 mi ESE 10.4 mph 20.7 mph N/A   Clear
3:55 PM 86.2 °F 34.3 °F 16% 29.94 in 10.0 mi East 15.0 mph 19.6 mph N/A   Clear
4:15 PM 89.6 °F 31.6 °F 13% 29.93 in 10.0 mi East 8.1 mph - N/A   Clear
4:35 PM 89.6 °F 31.8 °F 13% 29.92 in 10.0 mi ESE 11.5 mph 17.3 mph N/A   Clear
4:55 PM 90.0 °F 32.2 °F 13% 29.92 in 10.0 mi ESE 16.1 mph - N/A   Clear
5:15 PM 89.2 °F 32.4 °F 13% 29.92 in 10.0 mi ESE 20.7 mph 28.8 mph N/A   Clear
5:35 PM 88.2 °F 32.4 °F 14% 29.92 in 10.0 mi ESE 18.4 mph 26.5 mph N/A   Clear
5:55 PM 87.3 °F 32.5 °F 14% 29.92 in 10.0 mi SE 15.0 mph 25.3 mph N/A   Clear
6:15 PM 86.9 °F 32.4 °F 14% 29.91 in 10.0 mi ESE 16.1 mph 24.2 mph N/A   Clear
6:35 PM 86.5 °F 29.8 °F 13% 29.91 in 10.0 mi SE 11.5 mph 21.9 mph N/A   Clear
6:55 PM 83.7 °F 30.0 °F 14% 29.92 in 10.0 mi ESE 12.7 mph 24.2 mph N/A   Clear
7:15 PM 84.2 °F 33.3 °F 16% 29.92 in 10.0 mi ESE 10.4 mph - N/A   Clear
7:35 PM 83.1 °F 33.8 °F 17% 29.94 in 10.0 mi SE 17.3 mph 21.9 mph N/A   Clear
7:55 PM 77.5 °F 39.9 °F 26% 29.96 in 10.0 mi SE 27.6 mph 34.5 mph N/A   Clear
8:15 PM 74.8 °F 40.8 °F 29% 29.98 in 10.0 mi SE 24.2 mph 36.8 mph N/A   Clear
8:35 PM 73.4 °F 41.4 °F 31% 29.98 in 10.0 mi SSE 20.7 mph 29.9 mph N/A   Clear
8:55 PM 72.1 °F 41.9 °F 34% 29.99 in 10.0 mi SE 18.4 mph 28.8 mph N/A   Clear
9:15 PM 70.7 °F 43.5 °F 37% 30.00 in 10.0 mi SSE 16.1 mph 20.7 mph N/A   Clear
9:35 PM 69.8 °F 43.9 °F 39% 30.00 in 10.0 mi SSE 6.9 mph 12.7 mph N/A   Clear
9:55 PM 68.4 °F 44.6 °F 42% 30.02 in 10.0 mi SSE 4.6 mph - N/A   Clear
10:15 PM 67.1 °F 44.8 °F 45% 30.02 in 10.0 mi ESE 4.6 mph - N/A   Clear
10:35 PM 64.4 °F 45.7 °F 51% 30.02 in 10.0 mi Calm Calm - N/A   Clear
10:55 PM 60.3 °F 45.7 °F 59% 30.01 in 10.0 mi WNW 4.6 mph - N/A   Clear
11:15 PM 60.4 °F 45.9 °F 59% 30.02 in 10.0 mi Calm Calm - N/A   Clear
11:35 PM 59.2 °F 46.4 °F 63% 30.00 in 10.0 mi WNW 3.5 mph - N/A   Clear
11:55 PM 58.5 °F 46.4 °F 64% 30.00 in 10.0 mi Calm Calm - N/A   Clear